FENGYUN 1C DEB

Satellite information

Favourite Embed

Satellite Type and Status

DEBRISIN ORBIT

Key statistics

Satellite FENGYUN 1C DEB at a glance.

Uptime

9610

Days in orbit

Revolutions

≈ 14.0

Per day

Orbit

SSO

Sun Synchronous Orbit

Inclination

99.0

Latest

Satellite identification and parameters

Extended collection of information and parameters for FENGYUN 1C DEB.

Object identification

Identified? True

Debris? True

Object name: FENGYUN 1C DEB

International designator: 1999-025CQT

Object number (NORAD): 32101

Object ID (CCSDS): 32101

Country: PEOPLES REPUBLIC OF CHINA (PRC)

Current information (Y/N): Y

RCS size: SMALL

Orbital parameters

Period: 102.801 minutes

Inclination: 99.0404 deg

SMA: 7269.296 km

Apoapsis: 979.034 km

Periapsis: 803.288 km

RAAN: 142.6104 deg

Eccentricy: 0.01208826

Argument of periapsis: 165.454 deg

Mean anomaly: 195.0154 deg

Mean motion: 14.0076171 rev/day

Mean motion (dot): 0.00002349 rev/day2

B* drag term: 0.0015055289 1/REarth

Two-line elements (TLE)

Creation date: Aug. 31, 2025, 2:26 a.m.

Reference frame: TEME

Reference center: EARTH

Epoch: Aug. 30, 2025, 11:25 a.m. UTC

TLE line 0: 0 FENGYUN 1C DEB

TLE line 1: 1 32101U 99025CQT 25242.47573479 .00002349 00000-0 15055-2 0 9999

TLE line 2: 2 32101 99.0404 142.6104 0120883 165.4540 195.0154 14.00761710917223

Live tracking on map

Real-time ground track for satellite FENGYUN 1C DEB.

In-orbit conjunctions

A list of the most updated potential collisions computed for object FENGYUN 1C DEB.

Target Orbit TCA Probability of collision Miss distance Type
FENGYUN 1C DEB SSO 2025-06-13 19:15:22 0.000127775 449.0 (m) DEBRIS
COSMOS 1275 DEB LEO 2025-03-28 02:20:01 0.0001166236 361.0 (m) DEBRIS
SL-3 R/B LEO 2024-08-15 07:47:42 0.000118314 273.0 (m) ROCKET BODY

Associated space launch

Chinese polar orbiting meteorological satellite

FENGYUN 1C DEB was lifted into orbit during the mission ‘Long March 4B | Feng Yun 1C’, on board a Long March 4B space rocket.

The launch took place on May 10, 1999, 1:33 a.m. from Launch Complex 7.

For more information about the launch, click the button.

Launch to space Long March 4B | Feng Yun 1C
Long March 4B | Feng Yun 1C

Agency: N/A

Status: Launch Successful

Launch date: May 10, 1999, 1:33 a.m. UTC

Rocket: Long March 4B

Launch pad: Launch Complex 7

Location: Taiyuan Satellite Launch Center, People's Republic of China

...

Latest news about this satellite

There are no fresh news available about this satellite. Check back as we update our databases every day.


Newsletter sign-up

Weekly statistics, charts and insights to help you stay on top of the space industry.